CZ-6A DEB

Satellite information

Favourite Embed

Satellite Type and Status

DEBRISIN ORBIT

Key statistics

Satellite CZ-6A DEB at a glance.

Uptime

910

Days in orbit

Revolutions

≈ 14.1

Per day

Orbit

SSO

Sun Synchronous Orbit

Inclination

98.8

Latest

Satellite identification and parameters

Extended collection of information and parameters for CZ-6A DEB.

Object identification

Identified? True

Debris? True

Object name: CZ-6A DEB

International designator: 2022-151XL

Object number (NORAD): 55514

Object ID (CCSDS): 55514

Country: PEOPLES REPUBLIC OF CHINA (PRC)

Current information (Y/N): Y

RCS size: SMALL

Orbital parameters

Period: 102.052 minutes

Inclination: 98.8359 deg

SMA: 7233.922 km

Apoapsis: 919.326 km

Periapsis: 792.247 km

RAAN: 122.1157 deg

Eccentricy: 0.0087835

Argument of periapsis: 70.2801 deg

Mean anomaly: 290.7819 deg

Mean motion: 14.11048929 rev/day

Mean motion (dot): 0.00004861 rev/day2

B* drag term: 0.0026287 1/REarth

Two-line elements (TLE)

Creation date: May 9, 2025, 2:46 a.m.

Reference frame: TEME

Reference center: EARTH

Epoch: May 7, 2025, 11 p.m. UTC

TLE line 0: 0 CZ-6A DEB

TLE line 1: 1 55514U 22151XL 25127.95852801 .00004861 00000-0 26287-2 0 9992

TLE line 2: 2 55514 98.8359 122.1157 0087835 70.2801 290.7819 14.11048929123823

Live tracking on map

Real-time ground track for satellite CZ-6A DEB.

In-orbit conjunctions

A list of the most updated potential collisions computed for object CZ-6A DEB.

Target Orbit TCA Probability of collision Miss distance Type
DELTA 1 DEB SSO 2024-11-17 08:56:54 0.0001007374 126.0 (m) DEBRIS
METEOR 2-17 DEB LEO 2024-09-26 18:52:40 0.000380835 361.0 (m) DEBRIS
COSMOS 1266 LEO 2024-07-25 09:35:45 0.0001582424 503.0 (m) PAYLOAD
COSMOS 887 LEO 2024-06-20 07:26:32 0.0004314156 756.0 (m) PAYLOAD

Associated space launch

Chinese satellite reported for atmospheric/ocean/environmental/spatial parameter research purposes, details TBD.

CZ-6A DEB was lifted into orbit during the mission ‘Long March 6A | Yunhai 3’, on board a Long March 6A space rocket.

The launch took place on Nov. 11, 2022, 10:52 p.m. from Launch Complex 9A.

For more information about the launch, click the button.

Launch to space Long March 6A | Yunhai 3
Long March 6A | Yunhai 3

Agency: N/A

Status: Launch Successful

Launch date: Nov. 11, 2022, 10:52 p.m. UTC

Rocket: Long March 6A

Launch pad: Launch Complex 9A

Location: Taiyuan Satellite Launch Center, People's Republic of China

...

Latest news about this satellite

There are no fresh news available about this satellite. Check back as we update our databases every day.


Newsletter sign-up

Weekly statistics, charts and insights to help you stay on top of the space industry.